Tracking 19484 objects as of 20-Jan-2019
HD Live streaming from Space Station
objects crossing your sky now

BS-2B (YURI 2B)

Track BS-2B (YURI 2B) now!
BS-2B (YURI 2B) is classified as:


NORAD ID: 16597
Int'l Code: 1986-016A
Perigee: 36,037.6 km
Apogee: 36,106.0 km
Inclination: 15.1 °
Period: 1,450.3 minutes
Semi major axis: 42442 km
RCS: 2.9407 m2 (large)
Launch date: February 12, 1986
Source: Japan (JPN)
Launch site: TANEGASHIMA SPACE CENTER (TNSTA)
aabbcc
Your satellite tracking list
Your tracking list is empty




NASA's NSSDC Master Catalog

Two Line Element Set (TLE):
1 16597U 86016A   19019.96989601  .00000044  00000-0  00000+0 0  9994
2 16597  15.0554 354.3005 0008056 168.6968 188.4899  0.99288053101343
Source of the keplerian elements: AFSPC